Year,Month,Day,Hour,Minute,Value (Times are PST for windgust in km/hr)
2013,04,11,00,00,25.70
2013,04,11,00,01,38.60
2013,04,11,00,02,33.80
2013,04,11,00,03,33.80
2013,04,11,00,04,30.60
2013,04,11,00,05,29.00
2013,04,11,00,06,27.40
2013,04,11,00,07,24.20
2013,04,11,00,08,22.50
2013,04,11,00,09,27.40
2013,04,11,00,10,27.40
2013,04,11,00,11,29.00
2013,04,11,00,12,24.20
2013,04,11,00,13,27.40
2013,04,11,00,14,24.20
2013,04,11,00,15,35.40
2013,04,11,00,16,27.40
2013,04,11,00,17,20.90
2013,04,11,00,18,20.90
2013,04,11,00,19,25.70
2013,04,11,00,20,25.70
2013,04,11,00,21,30.60
2013,04,11,00,22,22.50
2013,04,11,00,23,20.90
2013,04,11,00,24,25.70
2013,04,11,00,25,29.00
2013,04,11,00,26,27.40
2013,04,11,00,27,35.40
2013,04,11,00,28,27.40
2013,04,11,00,29,35.40
2013,04,11,00,30,25.70
2013,04,11,00,31,30.60
2013,04,11,00,32,30.60
2013,04,11,00,33,27.40
2013,04,11,00,34,27.40
2013,04,11,00,35,25.70
2013,04,11,00,36,29.00
2013,04,11,00,37,27.40
2013,04,11,00,38,29.00
2013,04,11,00,39,20.90
2013,04,11,00,40,30.60
2013,04,11,00,41,30.60
2013,04,11,00,42,25.70
2013,04,11,00,43,20.90
2013,04,11,00,44,29.00
2013,04,11,00,45,25.70
2013,04,11,00,46,29.00
2013,04,11,00,47,24.20
2013,04,11,00,48,38.60
2013,04,11,00,49,25.70
2013,04,11,00,50,38.60
2013,04,11,00,51,24.20
2013,04,11,00,52,32.20
2013,04,11,00,53,35.40
2013,04,11,00,54,33.80
2013,04,11,00,55,35.40
2013,04,11,00,56,33.80
2013,04,11,00,57,22.50
2013,04,11,00,58,25.70
2013,04,11,00,59,29.00
2013,04,11,01,00,27.40
2013,04,11,01,01,27.40
2013,04,11,01,02,30.60
2013,04,11,01,03,30.60
2013,04,11,01,04,25.70
2013,04,11,01,05,35.40
2013,04,11,01,06,30.60
2013,04,11,01,07,30.60
2013,04,11,01,08,30.60
2013,04,11,01,09,33.80
2013,04,11,01,10,27.40
2013,04,11,01,11,19.30
2013,04,11,01,12,22.50
2013,04,11,01,13,24.20
2013,04,11,01,14,24.20
2013,04,11,01,15,19.30
2013,04,11,01,16,20.90
2013,04,11,01,17,27.40
2013,04,11,01,18,22.50
2013,04,11,01,19,24.20
2013,04,11,01,20,20.90
2013,04,11,01,21,17.70
2013,04,11,01,22,27.40
2013,04,11,01,23,20.90
2013,04,11,01,24,22.50
2013,04,11,01,25,17.70
2013,04,11,01,26,17.70
2013,04,11,01,27,17.70
2013,04,11,01,28,17.70
2013,04,11,01,29,19.30
2013,04,11,01,30,14.50
2013,04,11,01,31,20.90
2013,04,11,01,32,14.50
2013,04,11,01,33,11.30
2013,04,11,01,34,14.50
2013,04,11,01,35,14.50
2013,04,11,01,36,17.70
2013,04,11,01,37,20.90
2013,04,11,01,38,22.50
2013,04,11,01,39,19.30
2013,04,11,01,40,9.60
2013,04,11,01,41,11.30
2013,04,11,01,42,17.70
2013,04,11,01,43,22.50
2013,04,11,01,44,24.20
2013,04,11,01,45,30.60
2013,04,11,01,46,22.50
2013,04,11,01,47,29.00
2013,04,11,01,48,19.30
2013,04,11,01,49,24.20
2013,04,11,01,50,37.00
2013,04,11,01,51,29.00
2013,04,11,01,52,16.10
2013,04,11,01,53,19.30
2013,04,11,01,54,20.90
2013,04,11,01,55,22.50
2013,04,11,01,56,27.40
2013,04,11,01,57,20.90
2013,04,11,01,58,22.50
2013,04,11,01,59,30.60
2013,04,11,02,00,20.90
2013,04,11,02,01,22.50
2013,04,11,02,02,25.70
2013,04,11,02,03,20.90
2013,04,11,02,04,19.30
2013,04,11,02,05,25.70
2013,04,11,02,06,24.20
2013,04,11,02,07,22.50
2013,04,11,02,08,25.70
2013,04,11,02,09,17.70
2013,04,11,02,10,17.70
2013,04,11,02,11,16.10
2013,04,11,02,12,22.50
2013,04,11,02,13,25.70
2013,04,11,02,14,25.70
2013,04,11,02,15,20.90
2013,04,11,02,16,20.90
2013,04,11,02,17,25.70
2013,04,11,02,18,29.00
2013,04,11,02,19,24.20
2013,04,11,02,20,25.70
2013,04,11,02,21,30.60
2013,04,11,02,22,27.40
2013,04,11,02,23,32.20
2013,04,11,02,24,32.20
2013,04,11,02,25,33.80
2013,04,11,02,26,29.00
2013,04,11,02,27,35.40
2013,04,11,02,28,29.00
2013,04,11,02,29,27.40
2013,04,11,02,30,22.50
2013,04,11,02,31,30.60
2013,04,11,02,32,29.00
2013,04,11,02,33,32.20
2013,04,11,02,34,22.50
2013,04,11,02,35,27.40
2013,04,11,02,36,19.30
2013,04,11,02,37,19.30
2013,04,11,02,38,22.50
2013,04,11,02,39,25.70
2013,04,11,02,40,22.50
2013,04,11,02,41,24.20
2013,04,11,02,42,27.40
2013,04,11,02,43,22.50
2013,04,11,02,44,29.00
2013,04,11,02,45,32.20
2013,04,11,02,46,29.00
2013,04,11,02,47,19.30
2013,04,11,02,48,30.60
2013,04,11,02,49,25.70
2013,04,11,02,50,25.70
2013,04,11,02,51,33.80
2013,04,11,02,52,24.20
2013,04,11,02,53,19.30
2013,04,11,02,54,24.20
2013,04,11,02,55,27.40
2013,04,11,02,56,27.40
2013,04,11,02,57,27.40
2013,04,11,02,58,24.20
2013,04,11,02,59,19.30
2013,04,11,03,00,25.70
2013,04,11,03,01,27.40
2013,04,11,03,02,25.70
2013,04,11,03,03,25.70
2013,04,11,03,06,22.50
2013,04,11,03,07,24.20
2013,04,11,03,08,19.30
2013,04,11,03,09,20.90
2013,04,11,03,10,19.30
2013,04,11,03,11,19.30
2013,04,11,03,12,19.30
2013,04,11,03,13,20.90
2013,04,11,03,14,16.10
2013,04,11,03,15,16.10
2013,04,11,03,16,14.50
2013,04,11,03,17,19.30
2013,04,11,03,18,16.10
2013,04,11,03,19,12.90
2013,04,11,03,20,17.70
2013,04,11,03,21,22.50
2013,04,11,03,22,17.70
2013,04,11,03,23,16.10
2013,04,11,03,24,14.50
2013,04,11,03,25,25.70
2013,04,11,03,26,22.50
2013,04,11,03,27,14.50
2013,04,11,03,28,16.10
2013,04,11,03,29,11.30
2013,04,11,03,30,19.30
2013,04,11,03,31,12.90
2013,04,11,03,32,9.60
2013,04,11,03,33,16.10
2013,04,11,03,34,20.90
2013,04,11,03,35,22.50
2013,04,11,03,36,20.90
2013,04,11,03,37,16.10
2013,04,11,03,38,19.30
2013,04,11,03,39,17.70
2013,04,11,03,40,19.30
2013,04,11,03,41,20.90
2013,04,11,03,42,17.70
2013,04,11,03,43,19.30
2013,04,11,03,44,20.90
2013,04,11,03,45,20.90
2013,04,11,03,46,16.10
2013,04,11,03,47,17.70
2013,04,11,03,48,17.70
2013,04,11,03,49,16.10
2013,04,11,03,50,14.50
2013,04,11,03,51,25.70
2013,04,11,03,52,20.90
2013,04,11,03,53,24.20
2013,04,11,03,54,24.20
2013,04,11,03,55,24.20
2013,04,11,03,56,22.50
2013,04,11,03,57,30.60
2013,04,11,03,58,20.90
2013,04,11,03,59,19.30
2013,04,11,04,00,20.90
2013,04,11,04,01,25.70
2013,04,11,04,02,17.70
2013,04,11,04,03,11.30
2013,04,11,04,04,16.10
2013,04,11,04,05,19.30
2013,04,11,04,06,20.90
2013,04,11,04,07,29.00
2013,04,11,04,08,17.70
2013,04,11,04,09,24.20
2013,04,11,04,10,29.00
2013,04,11,04,11,16.10
2013,04,11,04,12,19.30
2013,04,11,04,13,24.20
2013,04,11,04,14,24.20
2013,04,11,04,15,24.20
2013,04,11,04,16,29.00
2013,04,11,04,17,24.20
2013,04,11,04,18,29.00
2013,04,11,04,19,20.90
2013,04,11,04,20,25.70
2013,04,11,04,21,20.90
2013,04,11,04,22,20.90
2013,04,11,04,23,25.70
2013,04,11,04,24,25.70
2013,04,11,04,25,25.70
2013,04,11,04,26,24.20
2013,04,11,04,27,17.70
2013,04,11,04,28,14.50
2013,04,11,04,29,20.90
2013,04,11,04,30,29.00
2013,04,11,04,31,19.30
2013,04,11,04,32,20.90
2013,04,11,04,33,30.60
2013,04,11,04,34,27.40
2013,04,11,04,35,25.70
2013,04,11,04,36,20.90
2013,04,11,04,37,29.00
2013,04,11,04,38,22.50
2013,04,11,04,39,25.70
2013,04,11,04,40,25.70
2013,04,11,04,41,22.50
2013,04,11,04,42,29.00
2013,04,11,04,43,24.20
2013,04,11,04,44,20.90
2013,04,11,04,45,20.90
2013,04,11,04,46,24.20
2013,04,11,04,47,24.20
2013,04,11,04,48,22.50
2013,04,11,04,49,20.90
2013,04,11,04,50,16.10
2013,04,11,04,51,27.40
2013,04,11,04,52,14.50
2013,04,11,04,53,22.50
2013,04,11,04,54,17.70
2013,04,11,04,55,11.30
2013,04,11,04,56,17.70
2013,04,11,04,57,19.30
2013,04,11,04,58,24.20
2013,04,11,04,59,22.50
2013,04,11,05,00,20.90
2013,04,11,05,01,20.90
2013,04,11,05,02,20.90
2013,04,11,05,03,19.30
2013,04,11,05,04,19.30
2013,04,11,05,05,19.30
2013,04,11,05,06,30.60
2013,04,11,05,07,25.70
2013,04,11,05,08,20.90
2013,04,11,05,09,19.30
2013,04,11,05,10,24.20
2013,04,11,05,11,24.20
2013,04,11,05,12,24.20
2013,04,11,05,13,27.40
2013,04,11,05,14,24.20
2013,04,11,05,15,17.70
2013,04,11,05,16,22.50
2013,04,11,05,17,19.30
2013,04,11,05,18,20.90
2013,04,11,05,19,17.70
2013,04,11,05,20,27.40
2013,04,11,05,21,14.50
2013,04,11,05,22,19.30
2013,04,11,05,23,12.90
2013,04,11,05,24,14.50
2013,04,11,05,25,14.50
2013,04,11,05,26,11.30
2013,04,11,05,27,9.60
2013,04,11,05,28,6.40
2013,04,11,05,29,11.30
2013,04,11,05,30,8.10
2013,04,11,05,31,8.10
2013,04,11,05,32,8.10
2013,04,11,05,33,9.60
2013,04,11,05,34,14.50
2013,04,11,05,35,6.40
2013,04,11,05,36,14.50
2013,04,11,05,37,14.50
2013,04,11,05,38,11.30
2013,04,11,05,39,16.10
2013,04,11,05,40,8.10
2013,04,11,05,41,3.20
2013,04,11,05,42,8.10
2013,04,11,05,43,8.10
2013,04,11,05,44,9.60
2013,04,11,05,45,9.60
2013,04,11,05,46,6.40
2013,04,11,05,47,11.30
2013,04,11,05,48,11.30
2013,04,11,05,49,11.30
2013,04,11,05,50,17.70
2013,04,11,05,51,11.30
2013,04,11,05,52,17.70
2013,04,11,05,53,11.30
2013,04,11,05,54,19.30
2013,04,11,05,55,22.50
2013,04,11,05,56,12.90
2013,04,11,05,57,9.60
2013,04,11,05,58,17.70
2013,04,11,05,59,11.30
2013,04,11,06,00,14.50
2013,04,11,06,01,9.60
2013,04,11,06,02,19.30
2013,04,11,06,03,12.90
2013,04,11,06,04,16.10
2013,04,11,06,05,16.10
2013,04,11,06,06,9.60
2013,04,11,06,07,9.60
2013,04,11,06,08,9.60
2013,04,11,06,09,16.10
2013,04,11,06,10,14.50
2013,04,11,06,11,8.10
2013,04,11,06,12,16.10
2013,04,11,06,13,16.10
2013,04,11,06,14,11.30
2013,04,11,06,15,8.10
2013,04,11,06,16,6.40
2013,04,11,06,17,6.40
2013,04,11,06,18,9.60
2013,04,11,06,19,9.60
2013,04,11,06,20,4.80
2013,04,11,06,21,16.10
2013,04,11,06,22,16.10
2013,04,11,06,23,20.90
2013,04,11,06,24,19.30
2013,04,11,06,25,17.70
2013,04,11,06,26,11.30
2013,04,11,06,27,14.50
2013,04,11,06,28,14.50
2013,04,11,06,29,9.60
2013,04,11,06,30,8.10
2013,04,11,06,31,6.40
2013,04,11,06,32,6.40
2013,04,11,06,33,9.60
2013,04,11,06,34,6.40
2013,04,11,06,35,8.10
2013,04,11,06,36,14.50
2013,04,11,06,37,11.30
2013,04,11,06,38,12.90
2013,04,11,06,39,14.50
2013,04,11,06,40,11.30
2013,04,11,06,41,11.30
2013,04,11,06,42,25.70
2013,04,11,06,43,20.90
2013,04,11,06,44,16.10
2013,04,11,06,45,19.30
2013,04,11,06,46,22.50
2013,04,11,06,47,25.70
2013,04,11,06,48,19.30
2013,04,11,06,49,20.90
2013,04,11,06,50,9.60
2013,04,11,06,51,19.30
2013,04,11,06,52,17.70
2013,04,11,06,53,20.90
2013,04,11,06,54,20.90
2013,04,11,06,55,19.30
2013,04,11,06,56,17.70
2013,04,11,06,57,17.70
2013,04,11,06,58,20.90
2013,04,11,06,59,16.10
2013,04,11,07,00,20.90
2013,04,11,07,01,17.70
2013,04,11,07,02,11.30
2013,04,11,07,03,14.50
2013,04,11,07,04,24.20
2013,04,11,07,05,22.50
2013,04,11,07,06,20.90
2013,04,11,07,07,22.50
2013,04,11,07,08,17.70
2013,04,11,07,09,17.70
2013,04,11,07,10,16.10
2013,04,11,07,11,11.30
2013,04,11,07,12,19.30
2013,04,11,07,13,16.10
2013,04,11,07,14,12.90
2013,04,11,07,15,11.30
2013,04,11,07,16,11.30
2013,04,11,07,17,9.60
2013,04,11,07,18,9.60
2013,04,11,07,19,16.10
2013,04,11,07,20,9.60
2013,04,11,07,21,24.20
2013,04,11,07,22,19.30
2013,04,11,07,23,19.30
2013,04,11,07,24,8.10
2013,04,11,07,25,14.50
2013,04,11,07,26,11.30
2013,04,11,07,27,19.30
2013,04,11,07,28,20.90
2013,04,11,07,29,11.30
2013,04,11,07,30,17.70
2013,04,11,07,31,17.70
2013,04,11,07,32,17.70
2013,04,11,07,33,16.10
2013,04,11,07,34,16.10
2013,04,11,07,35,11.30
2013,04,11,07,36,11.30
2013,04,11,07,37,8.10
2013,04,11,07,38,11.30
2013,04,11,07,39,11.30
2013,04,11,07,40,9.60
2013,04,11,07,41,14.50
2013,04,11,07,42,16.10
2013,04,11,07,43,20.90
2013,04,11,07,44,20.90
2013,04,11,07,45,14.50
2013,04,11,07,46,17.70
2013,04,11,07,47,19.30
2013,04,11,07,48,19.30
2013,04,11,07,49,16.10
2013,04,11,07,50,20.90
2013,04,11,07,51,17.70
2013,04,11,07,52,14.50
2013,04,11,07,53,11.30
2013,04,11,07,54,17.70
2013,04,11,07,55,20.90
2013,04,11,07,56,24.20
2013,04,11,07,57,22.50
2013,04,11,07,58,16.10
2013,04,11,07,59,25.70
2013,04,11,08,00,22.50
2013,04,11,08,01,17.70
2013,04,11,08,02,19.30
2013,04,11,08,03,19.30
2013,04,11,08,04,19.30
2013,04,11,08,05,14.50
2013,04,11,08,06,11.30
2013,04,11,08,07,12.90
2013,04,11,08,08,24.20
2013,04,11,08,09,22.50
2013,04,11,08,10,22.50
2013,04,11,08,11,19.30
2013,04,11,08,12,22.50
2013,04,11,08,13,22.50
2013,04,11,08,14,19.30
2013,04,11,08,15,20.90
2013,04,11,08,16,19.30
2013,04,11,08,17,19.30
2013,04,11,08,18,20.90
2013,04,11,08,19,19.30
2013,04,11,08,20,27.40
2013,04,11,08,21,17.70
2013,04,11,08,22,20.90
2013,04,11,08,23,20.90
2013,04,11,08,24,20.90
2013,04,11,08,25,20.90
2013,04,11,08,26,22.50
2013,04,11,08,27,24.20
2013,04,11,08,28,20.90
2013,04,11,08,29,25.70
2013,04,11,08,30,20.90
2013,04,11,08,31,19.30
2013,04,11,08,32,14.50
2013,04,11,08,33,19.30
2013,04,11,08,34,16.10
2013,04,11,08,35,22.50
2013,04,11,08,36,20.90
2013,04,11,08,37,20.90
2013,04,11,08,38,19.30
2013,04,11,08,39,17.70
2013,04,11,08,40,17.70
2013,04,11,08,41,20.90
2013,04,11,08,42,24.20
2013,04,11,08,43,17.70
2013,04,11,08,44,20.90
2013,04,11,08,45,20.90
2013,04,11,08,46,24.20
2013,04,11,08,47,19.30
2013,04,11,08,48,25.70
2013,04,11,08,49,20.90
2013,04,11,08,50,22.50
2013,04,11,08,51,20.90
2013,04,11,08,52,20.90
2013,04,11,08,53,25.70
2013,04,11,08,54,16.10
2013,04,11,08,55,25.70
2013,04,11,08,56,24.20
2013,04,11,08,57,24.20
2013,04,11,08,58,30.60
2013,04,11,08,59,30.60
2013,04,11,09,00,22.50
2013,04,11,09,01,25.70
2013,04,11,09,02,22.50
2013,04,11,09,03,19.30
2013,04,11,09,04,22.50
2013,04,11,09,05,25.70
2013,04,11,09,06,24.20
2013,04,11,09,07,17.70
2013,04,11,09,08,17.70
2013,04,11,09,09,24.20
2013,04,11,09,10,16.10
2013,04,11,09,11,25.70
2013,04,11,09,12,29.00
2013,04,11,09,13,24.20
2013,04,11,09,14,19.30
2013,04,11,09,15,17.70
2013,04,11,09,16,27.40
2013,04,11,09,17,27.40
2013,04,11,09,18,17.70
2013,04,11,09,19,25.70
2013,04,11,09,20,24.20
2013,04,11,09,21,27.40
2013,04,11,09,22,32.20
2013,04,11,09,23,25.70
2013,04,11,09,24,19.30
2013,04,11,09,25,22.50
2013,04,11,09,26,11.30
2013,04,11,09,27,19.30
2013,04,11,09,28,12.90
2013,04,11,09,29,20.90
2013,04,11,09,30,17.70
2013,04,11,09,31,22.50
2013,04,11,09,32,19.30
2013,04,11,09,33,19.30
2013,04,11,09,34,19.30
2013,04,11,09,35,12.90
2013,04,11,09,36,20.90
2013,04,11,09,37,20.90
2013,04,11,09,38,22.50
2013,04,11,09,39,16.10
2013,04,11,09,40,19.30
2013,04,11,09,41,16.10
2013,04,11,09,42,29.00
2013,04,11,09,43,27.40
2013,04,11,09,44,25.70
2013,04,11,09,45,25.70
2013,04,11,09,46,24.20
2013,04,11,09,47,22.50
2013,04,11,09,48,17.70
2013,04,11,09,49,20.90
2013,04,11,09,50,16.10
2013,04,11,09,51,17.70
2013,04,11,09,52,16.10
2013,04,11,09,53,19.30
2013,04,11,09,54,22.50
2013,04,11,09,55,22.50
2013,04,11,09,56,27.40
2013,04,11,09,57,17.70
2013,04,11,09,58,20.90
2013,04,11,09,59,27.40
2013,04,11,10,00,22.50
2013,04,11,10,01,20.90
2013,04,11,10,02,16.10
2013,04,11,10,03,20.90
2013,04,11,10,04,22.50
2013,04,11,10,05,35.40
2013,04,11,10,06,25.70
2013,04,11,10,07,20.90
2013,04,11,10,08,29.00
2013,04,11,10,09,33.80
2013,04,11,10,10,22.50
2013,04,11,10,11,20.90
2013,04,11,10,12,22.50
2013,04,11,10,13,20.90
2013,04,11,10,14,22.50
2013,04,11,10,15,22.50
2013,04,11,10,16,20.90
2013,04,11,10,17,17.70
2013,04,11,10,18,22.50
2013,04,11,10,19,22.50
2013,04,11,10,20,32.20
2013,04,11,10,21,29.00
2013,04,11,10,22,25.70
2013,04,11,10,23,14.50
2013,04,11,10,24,17.70
2013,04,11,10,25,32.20
2013,04,11,10,26,30.60
2013,04,11,10,27,27.40
2013,04,11,10,28,25.70
2013,04,11,10,29,19.30
2013,04,11,10,30,19.30
2013,04,11,10,31,24.20
2013,04,11,10,32,29.00
2013,04,11,10,33,20.90
2013,04,11,10,34,20.90
2013,04,11,10,35,25.70
2013,04,11,10,36,17.70
2013,04,11,10,37,19.30
2013,04,11,10,38,24.20
2013,04,11,10,39,20.90
2013,04,11,10,40,22.50
2013,04,11,10,41,29.00
2013,04,11,10,42,19.30
2013,04,11,10,43,22.50
2013,04,11,10,44,24.20
2013,04,11,10,45,19.30
2013,04,11,10,46,25.70
2013,04,11,10,47,27.40
2013,04,11,10,48,24.20
2013,04,11,10,49,25.70
2013,04,11,10,50,29.00
2013,04,11,10,51,20.90
2013,04,11,10,52,20.90
2013,04,11,10,53,27.40
2013,04,11,10,54,29.00
2013,04,11,10,55,22.50
2013,04,11,10,56,25.70
2013,04,11,10,57,24.20
2013,04,11,10,58,24.20
2013,04,11,10,59,24.20
2013,04,11,11,00,27.40
2013,04,11,11,01,22.50
2013,04,11,11,02,20.90
2013,04,11,11,03,19.30
2013,04,11,11,04,20.90
2013,04,11,11,05,25.70
2013,04,11,11,06,24.20
2013,04,11,11,07,19.30
2013,04,11,11,08,24.20
2013,04,11,11,09,24.20
2013,04,11,11,10,20.90
2013,04,11,11,11,37.00
2013,04,11,11,12,35.40
2013,04,11,11,13,20.90
2013,04,11,11,14,20.90
2013,04,11,11,15,29.00
2013,04,11,11,16,24.20
2013,04,11,11,17,20.90
2013,04,11,11,18,16.10
2013,04,11,11,19,19.30
2013,04,11,11,20,27.40
2013,04,11,11,21,25.70
2013,04,11,11,22,17.70
2013,04,11,11,23,20.90
2013,04,11,11,24,22.50
2013,04,11,11,25,19.30
2013,04,11,11,26,22.50
2013,04,11,11,27,20.90
2013,04,11,11,28,14.50
2013,04,11,11,29,24.20
2013,04,11,11,30,24.20
2013,04,11,11,31,27.40
2013,04,11,11,32,14.50
2013,04,11,11,33,17.70
2013,04,11,11,34,29.00
2013,04,11,11,35,25.70
2013,04,11,11,36,16.10
2013,04,11,11,37,25.70
2013,04,11,11,38,30.60
2013,04,11,11,39,30.60
2013,04,11,11,40,20.90
2013,04,11,11,41,29.00
2013,04,11,11,42,20.90
2013,04,11,11,43,27.40
2013,04,11,11,44,29.00
2013,04,11,11,45,33.80
2013,04,11,11,46,27.40
2013,04,11,11,47,24.20
2013,04,11,11,48,29.00
2013,04,11,11,49,25.70
2013,04,11,11,50,27.40
2013,04,11,11,51,29.00
2013,04,11,11,52,24.20
2013,04,11,11,53,22.50
2013,04,11,11,54,22.50
2013,04,11,11,55,20.90
2013,04,11,11,56,11.30
2013,04,11,11,57,27.40
2013,04,11,11,58,27.40
2013,04,11,11,59,27.40
2013,04,11,12,00,22.50
2013,04,11,12,01,25.70
2013,04,11,12,02,22.50
2013,04,11,12,03,22.50
2013,04,11,12,04,25.70
2013,04,11,12,05,20.90
2013,04,11,12,06,20.90
2013,04,11,12,07,25.70
2013,04,11,12,08,24.20
2013,04,11,12,09,25.70
2013,04,11,12,10,32.20
2013,04,11,12,11,24.20
2013,04,11,12,12,22.50
2013,04,11,12,13,29.00
2013,04,11,12,14,25.70
2013,04,11,12,15,20.90
2013,04,11,12,16,14.50
2013,04,11,12,17,16.10
2013,04,11,12,18,19.30
2013,04,11,12,19,20.90
2013,04,11,12,20,22.50
2013,04,11,12,21,20.90
2013,04,11,12,22,25.70
2013,04,11,12,23,22.50
2013,04,11,12,24,17.70
2013,04,11,12,25,17.70
2013,04,11,12,26,11.30
2013,04,11,12,27,19.30
2013,04,11,12,28,25.70
2013,04,11,12,29,22.50
2013,04,11,12,30,24.20
2013,04,11,12,31,20.90
2013,04,11,12,32,27.40
2013,04,11,12,33,20.90
2013,04,11,12,34,19.30
2013,04,11,12,35,22.50
2013,04,11,12,36,16.10
2013,04,11,12,37,14.50
2013,04,11,12,38,22.50
2013,04,11,12,39,17.70
2013,04,11,12,40,22.50
2013,04,11,12,41,16.10
2013,04,11,12,42,20.90
2013,04,11,12,43,19.30
2013,04,11,12,44,22.50
2013,04,11,12,45,22.50
2013,04,11,12,46,16.10
2013,04,11,12,47,17.70
2013,04,11,12,48,19.30
2013,04,11,12,49,16.10
2013,04,11,12,50,14.50
2013,04,11,12,51,16.10
2013,04,11,12,52,12.90
2013,04,11,12,53,16.10
2013,04,11,12,54,17.70
2013,04,11,12,55,17.70
2013,04,11,12,56,9.60
2013,04,11,12,57,25.70
2013,04,11,12,58,22.50
2013,04,11,12,59,25.70
2013,04,11,13,00,11.30
2013,04,11,13,01,12.90
2013,04,11,13,02,20.90
2013,04,11,13,03,16.10
2013,04,11,13,04,16.10
2013,04,11,13,05,24.20
2013,04,11,13,06,16.10
2013,04,11,13,07,11.30
2013,04,11,13,08,11.30
2013,04,11,13,09,22.50
2013,04,11,13,10,19.30
2013,04,11,13,11,11.30
2013,04,11,13,12,16.10
2013,04,11,13,13,24.20
2013,04,11,13,14,16.10
2013,04,11,13,15,17.70
2013,04,11,13,16,20.90
2013,04,11,13,17,24.20
2013,04,11,13,18,19.30
2013,04,11,13,19,20.90
2013,04,11,13,20,17.70
2013,04,11,13,21,19.30
2013,04,11,13,22,17.70
2013,04,11,13,23,11.30
2013,04,11,13,24,22.50
2013,04,11,13,25,19.30
2013,04,11,13,26,25.70
2013,04,11,13,27,20.90
2013,04,11,13,28,17.70
2013,04,11,13,29,17.70
2013,04,11,13,30,14.50
2013,04,11,13,31,14.50
2013,04,11,13,32,9.60
2013,04,11,13,33,11.30
2013,04,11,13,34,20.90
2013,04,11,13,35,22.50
2013,04,11,13,36,22.50
2013,04,11,13,37,16.10
2013,04,11,13,38,12.90
2013,04,11,13,39,8.10
2013,04,11,13,40,17.70
2013,04,11,13,41,20.90
2013,04,11,13,42,17.70
2013,04,11,13,43,16.10
2013,04,11,13,44,17.70
2013,04,11,13,45,14.50
2013,04,11,13,46,14.50
2013,04,11,13,47,9.60
2013,04,11,13,48,16.10
2013,04,11,13,49,17.70
2013,04,11,13,50,11.30
2013,04,11,13,51,14.50
2013,04,11,13,52,6.40
2013,04,11,13,53,3.20
2013,04,11,13,54,12.90
2013,04,11,13,55,8.10
2013,04,11,13,56,20.90
2013,04,11,13,57,14.50
2013,04,11,13,58,11.30
2013,04,11,13,59,9.60
2013,04,11,14,00,6.40
2013,04,11,14,01,8.10
2013,04,11,14,02,4.80
2013,04,11,14,03,8.10
2013,04,11,14,04,8.10
2013,04,11,14,05,14.50
2013,04,11,14,06,16.10
2013,04,11,14,07,9.60
2013,04,11,14,08,16.10
2013,04,11,14,09,22.50
2013,04,11,14,10,14.50
2013,04,11,14,11,8.10
2013,04,11,14,12,8.10
2013,04,11,14,13,9.60
2013,04,11,14,14,11.30
2013,04,11,14,15,8.10
2013,04,11,14,16,14.50
2013,04,11,14,17,19.30
2013,04,11,14,18,17.70
2013,04,11,14,19,22.50
2013,04,11,14,20,17.70
2013,04,11,14,21,14.50
2013,04,11,14,22,14.50
2013,04,11,14,23,11.30
2013,04,11,14,24,9.60
2013,04,11,14,25,19.30
2013,04,11,14,26,25.70
2013,04,11,14,27,6.40
2013,04,11,14,28,6.40
2013,04,11,14,29,4.80
2013,04,11,14,30,8.10
2013,04,11,14,31,8.10
2013,04,11,14,32,17.70
2013,04,11,14,33,14.50
2013,04,11,14,34,11.30
2013,04,11,14,35,14.50
2013,04,11,14,36,17.70
2013,04,11,14,37,8.10
2013,04,11,14,38,9.60
2013,04,11,14,39,9.60
2013,04,11,14,40,8.10
2013,04,11,14,41,8.10
2013,04,11,14,42,14.50
2013,04,11,14,43,11.30
2013,04,11,14,44,16.10
2013,04,11,14,45,16.10
2013,04,11,14,46,4.80
2013,04,11,14,47,11.30
2013,04,11,14,48,9.60
2013,04,11,14,49,8.10
2013,04,11,14,50,4.80
2013,04,11,14,51,11.30
2013,04,11,14,52,6.40
2013,04,11,14,53,6.40
2013,04,11,14,54,4.80
2013,04,11,14,55,3.20
2013,04,11,14,56,8.10
2013,04,11,14,57,11.30
2013,04,11,14,58,11.30
2013,04,11,14,59,11.30
2013,04,11,15,00,9.60
2013,04,11,15,01,9.60
2013,04,11,15,02,9.60
2013,04,11,15,03,8.10
2013,04,11,15,04,9.60
2013,04,11,15,05,8.10
2013,04,11,15,06,8.10
2013,04,11,15,07,8.10
2013,04,11,15,08,8.10
2013,04,11,15,09,8.10
2013,04,11,15,10,4.80
2013,04,11,15,11,6.40
2013,04,11,15,12,8.10
2013,04,11,15,13,4.80
2013,04,11,15,14,4.80
2013,04,11,15,15,3.20
2013,04,11,15,16,6.40
2013,04,11,15,17,4.80
2013,04,11,15,18,6.40
2013,04,11,15,19,4.80
2013,04,11,15,20,6.40
2013,04,11,15,21,6.40
2013,04,11,15,22,6.40
2013,04,11,15,23,4.80
2013,04,11,15,24,4.80
2013,04,11,15,25,6.40
2013,04,11,15,26,8.10
2013,04,11,15,27,3.20
2013,04,11,15,28,3.20
2013,04,11,15,29,3.20
2013,04,11,15,30,3.20
2013,04,11,15,31,3.20
2013,04,11,15,32,3.20
2013,04,11,15,33,4.80
2013,04,11,15,34,3.20
2013,04,11,15,35,4.80
2013,04,11,15,36,4.80
2013,04,11,15,37,3.20
2013,04,11,15,38,4.80
2013,04,11,15,39,8.10
2013,04,11,15,40,8.10
2013,04,11,15,41,6.40
2013,04,11,15,42,8.10
2013,04,11,15,43,11.30
2013,04,11,15,44,9.60
2013,04,11,15,45,6.40
2013,04,11,15,46,6.40
2013,04,11,15,47,12.90
2013,04,11,15,48,11.30
2013,04,11,15,49,8.10
2013,04,11,15,50,6.40
2013,04,11,15,51,11.30
2013,04,11,15,52,8.10
2013,04,11,15,53,9.60
2013,04,11,15,54,11.30
2013,04,11,15,55,6.40
2013,04,11,15,56,6.40
2013,04,11,15,57,11.30
2013,04,11,15,58,16.10
2013,04,11,15,59,14.50
2013,04,11,16,00,16.10
2013,04,11,16,01,20.90
2013,04,11,16,02,24.20
2013,04,11,16,03,19.30
2013,04,11,16,04,11.30
2013,04,11,16,05,9.60
2013,04,11,16,06,14.50
2013,04,11,16,07,11.30
2013,04,11,16,08,16.10
2013,04,11,16,09,20.90
2013,04,11,16,10,19.30
2013,04,11,16,11,19.30
2013,04,11,16,12,11.30
2013,04,11,16,13,11.30
2013,04,11,16,14,11.30
2013,04,11,16,15,22.50
2013,04,11,16,16,17.70
2013,04,11,16,17,17.70
2013,04,11,16,18,17.70
2013,04,11,16,19,16.10
2013,04,11,16,20,20.90
2013,04,11,16,21,12.90
2013,04,11,16,22,14.50
2013,04,11,16,23,9.60
2013,04,11,16,24,19.30
2013,04,11,16,25,29.00
2013,04,11,16,26,17.70
2013,04,11,16,27,14.50
2013,04,11,16,28,24.20
2013,04,11,16,29,19.30
2013,04,11,16,30,24.20
2013,04,11,16,31,25.70
2013,04,11,16,32,17.70
2013,04,11,16,33,19.30
2013,04,11,16,34,19.30
2013,04,11,16,35,14.50
2013,04,11,16,36,8.10
2013,04,11,16,37,14.50
2013,04,11,16,38,19.30
2013,04,11,16,39,16.10
2013,04,11,16,40,14.50
2013,04,11,16,41,16.10
2013,04,11,16,42,19.30
2013,04,11,16,43,19.30
2013,04,11,16,44,19.30
2013,04,11,16,45,17.70
2013,04,11,16,46,9.60
2013,04,11,16,47,11.30
2013,04,11,16,48,11.30
2013,04,11,16,49,16.10
2013,04,11,16,50,11.30
2013,04,11,16,51,11.30
2013,04,11,16,52,20.90
2013,04,11,16,53,24.20
2013,04,11,16,54,27.40
2013,04,11,16,55,24.20
2013,04,11,16,56,19.30
2013,04,11,16,57,17.70
2013,04,11,16,58,19.30
2013,04,11,16,59,16.10
2013,04,11,17,00,16.10
2013,04,11,17,01,22.50
2013,04,11,17,02,27.40
2013,04,11,17,03,29.00
2013,04,11,17,04,19.30
2013,04,11,17,05,9.60
2013,04,11,17,06,17.70
2013,04,11,17,07,20.90
2013,04,11,17,08,20.90
2013,04,11,17,09,25.70
2013,04,11,17,10,24.20
2013,04,11,17,11,14.50
2013,04,11,17,12,16.10
2013,04,11,17,13,16.10
2013,04,11,17,14,17.70
2013,04,11,17,15,19.30
2013,04,11,17,16,11.30
2013,04,11,17,17,20.90
2013,04,11,17,18,22.50
2013,04,11,17,19,19.30
2013,04,11,17,20,25.70
2013,04,11,17,21,22.50
2013,04,11,17,22,16.10
2013,04,11,17,23,20.90
2013,04,11,17,24,19.30
2013,04,11,17,25,19.30
2013,04,11,17,26,22.50
2013,04,11,17,27,17.70